Massena, NY

5:05 AM EDT on September 22, 2019 (GMT -0400)
Massena International-Richards

Weather History for KMSS - July, 2019

Change the Weather History Date:

Tuesday, July 30, 2019

  Actual Average Record
Temperature  
Mean Temperature 77 °F 69 °F  
Max Temperature 86 °F 80 °F 91 °F (1955)
Min Temperature 68 °F 58 °F 41 °F (1952)
Degree Days  
Heating Degree Days 0 1  
Month to date heating degree days 1 30  
Since 1 June heating degree days 98 126  
Since 1 July heating degree days 1 30  
Cooling Degree Days 12 4  
Month to date cooling degree days 225 146  
Year to date cooling degree days 284 235  
Since 1 June cooling degree days 283 221  
Growing Degree Days 27 (Base 50)    
Moisture  
Dew Point 69 °F    
Average Humidity 73    
Maximum Humidity 84    
Minimum Humidity 62    
Precipitation  
Precipitation 0.29 in 0.12 in 0.41 in (1977)
Month to date precipitation 1.69 3.46  
Year to date precipitation 16.18 18.91  
Sea Level Pressure  
Sea Level Pressure 29.90 in    
Wind  
Wind Speed 8 mph (WSW)    
Max Wind Speed 25 mph    
Max Gust Speed 34 mph    
Visibility 9 miles    
Events Rain , Thunderstorm    
T = Trace of Precipitation, MM = Missing Value Source: NWS Daily Summary

Daily Weather History Graph

Daily Weather History Graph

Search for Another Location

Airport or City:

Astronomy

Jul. 30, 2019 Rise Set
Actual Time 5:42 AM EDT 8:28 PM EDT
Civil Twilight 5:08 AM EDT 9:02 PM EDT
Nautical Twilight 4:25 AM EDT 9:45 PM EDT
Astronomical Twilight 3:35 AM EDT 10:35 PM EDT
Moon 3:44 AM EDT (7/30) 7:34 PM EDT (7/30)
Length of Visible Light 15h 54m
Length of Day
14h 46m
Waning Crescent, 3% of the Moon is Illuminated
Jul 30
Waning Crescent
Jul 31
New
Aug 7
First Quarter
Aug 15
Full
Aug 23
Last Quarter

Hourly Weather History & Observations

Time (EDT) Temp. Heat Index Dew Point Humidity Pressure Visibility Wind Dir Wind Speed Gust Speed Precip Events Conditions
9:53 AM 82.0 °F 85.5 °F 69.1 °F 65% 29.91 in 10.0 mi SSW 11.5 mph - N/A   Clear
10:53 AM 82.9 °F 85.8 °F 68.0 °F 60% 29.91 in 10.0 mi SW 12.7 mph - N/A   Partly Cloudy
12:20 PM 73.9 °F - 66.9 °F 79% 29.92 in 2.0 mi West 16.1 mph 34.5 mph 0.13 in Rain , Thunderstorm Heavy Rain
12:22 PM 72.0 °F - 66.9 °F 84% 29.92 in 1.0 mi West 12.7 mph 34.5 mph 0.24 in Rain , Thunderstorm Heavy Rain
12:26 PM 72.0 °F - 68.0 °F 87% 29.91 in 0.8 mi WNW 15.0 mph 32.2 mph 0.28 in Rain , Thunderstorm Heavy Thunderstorms and Rain
12:32 PM 73.9 °F - 70.0 °F 87% 29.90 in 1.5 mi WNW 13.8 mph 18.4 mph 0.28 in Rain , Thunderstorm Light Thunderstorms and Rain
12:39 PM 75.0 °F - 71.1 °F 87% 29.90 in 10.0 mi WNW 12.7 mph - 0.28 in Thunderstorm Thunderstorm
12:53 PM 78.1 °F - 72.0 °F 81% 29.89 in 10.0 mi WNW 10.4 mph - 0.28 in Thunderstorm Clear
1:12 PM 77.0 °F - 70.0 °F 79% 29.90 in 10.0 mi WNW 12.7 mph - N/A   Clear
1:48 PM 80.6 °F 84.6 °F 71.6 °F 74% 29.89 in 10.0 mi West 9.2 mph - N/A Thunderstorm Partly Cloudy
1:53 PM 80.1 °F 83.2 °F 70.0 °F 71% 29.88 in 10.0 mi WNW 9.2 mph - N/A Thunderstorm Partly Cloudy
2:14 PM 77.0 °F - 70.0 °F 79% 29.90 in 10.0 mi West 9.2 mph - 0.00 in Rain , Thunderstorm Light Thunderstorms and Rain
2:35 PM 80.1 °F 83.6 °F 71.1 °F 74% 29.90 in 10.0 mi West 15.0 mph - 0.01 in Thunderstorm Mostly Cloudy
2:49 PM 80.6 °F 83.9 °F 69.8 °F 70% 29.90 in 10.0 mi West 8.1 mph - 0.01 in   Clear
2:53 PM 81.0 °F 84.4 °F 70.0 °F 69% 29.89 in 10.0 mi West 10.4 mph - 0.01 in   Clear
3:53 PM 82.0 °F 85.9 °F 70.0 °F 67% 29.88 in 10.0 mi WSW 11.5 mph 19.6 mph N/A Thunderstorm Partly Cloudy
4:08 PM 81.0 °F 83.8 °F 68.0 °F 65% 29.88 in 10.0 mi SW 15.0 mph 23.0 mph N/A   Scattered Clouds
4:53 PM 80.1 °F 82.3 °F 66.9 °F 64% 29.87 in 10.0 mi WSW 11.5 mph - N/A   Partly Cloudy
5:53 PM 80.1 °F 82.7 °F 68.0 °F 67% 29.88 in 10.0 mi SW 11.5 mph 19.6 mph N/A   Clear
6:53 PM 79.0 °F - 68.0 °F 69% 29.89 in 10.0 mi SW 8.1 mph - N/A   Mostly Cloudy
7:53 PM 78.1 °F - 69.1 °F 74% 29.90 in 10.0 mi SSW 4.6 mph - N/A   Partly Cloudy
8:53 PM 73.9 °F - 68.0 °F 82% 29.90 in 10.0 mi WSW 3.5 mph - N/A   Clear
9:53 PM 73.0 °F - 68.0 °F 84% 29.92 in 10.0 mi SSW 4.6 mph - N/A   Clear
10:53 PM 73.9 °F - 68.0 °F 82% 29.95 in 10.0 mi SW 6.9 mph - N/A   Clear
11:53 PM 73.0 °F - 68.0 °F 84% 29.94 in 10.0 mi SSW 5.8 mph - N/A   Clear